Location: Caltech
(34.1382°N, 118.1253°W)
Time: 20:05:00
(UTC-08:00)

JAS-2 - Visible Passes

Search period start: 04 March 2015 00:00
Search period end: 14 March 2015 01:00
Orbit: 800 x 1321 km, 98.5° (Epoch: 04 March)

Date Brightness Start Highest point End Pass type
(mag) Time Alt. Az. Time Alt. Az. Time Alt. Az.
04 Mar 12.2 02:58:24 10° NE 03:03:35 20° E 03:09:16 10° SE visible
04 Mar 10.0 04:41:36 10° N 04:49:11 72° WNW 04:57:00 10° SSW visible
05 Mar 10.9 03:46:53 10° NNE 03:54:14 49° E 04:01:48 10° S visible
05 Mar 10.7 05:32:22 10° N 05:39:00 33° WNW 05:45:38 10° SW visible
06 Mar 12.2 02:53:46 10° NE 02:58:43 19° E 03:04:09 10° SE visible
06 Mar 10.0 04:36:43 10° N 04:44:24 77° WNW 04:52:14 10° SSW visible
07 Mar 11.0 03:42:05 10° NNE 03:49:25 46° E 03:56:54 10° S visible
07 Mar 10.7 05:27:25 10° N 05:34:14 35° WNW 05:41:01 10° SW visible
08 Mar 12.3 03:49:11 10° NE 03:53:49 18° E 03:58:58 10° SE visible
08 Mar 10.0 05:31:51 10° N 05:39:37 81° WNW 05:47:27 10° SSW visible
09 Mar 11.1 04:37:18 10° NNE 04:44:35 43° E 04:51:58 10° SSE visible
09 Mar 10.6 06:22:29 10° N 06:29:27 37° WNW 06:36:22 10° SW visible
10 Mar 12.4 03:44:39 10° NE 03:48:56 16° E 03:53:45 10° SE visible
10 Mar 10.1 05:27:00 10° NNE 05:34:50 86° WNW 05:42:39 10° SSW visible
11 Mar 11.2 04:32:33 10° NNE 04:39:46 41° E 04:47:01 10° SSE visible
11 Mar 10.6 06:17:34 10° N 06:24:41 39° WNW 06:31:42 10° SW visible
12 Mar 12.5 03:40:10 10° ENE 03:44:02 15° E 03:48:27 10° ESE visible
12 Mar 10.1 05:22:10 10° NNE 05:30:03 90° S 05:37:49 10° SSW visible
13 Mar 11.3 04:27:48 10° NNE 04:34:56 38° E 04:42:01 10° SSE visible
13 Mar 10.5 06:12:40 10° N 06:19:55 42° WNW 06:27:00 10° SW visible
